This demonstration page uses our WeatherBlox Daily Observations layout. Learn more.

Left ArrowRight Arrow

40.92945, -100.16068

Hourly Observations for May 1, 2021

Temp ( °F °C ) Dew Point ( °F °C ) Humidity (%) Winds ( mph kmh ) Pressure ( in mb ) Visibility ( mi km ) Precip ( " mm )
12:15 am 00:15 Clear 67 19.2 36 2.2 32 32 SSW 20 31 29.89 1012 10 16 0.00 0.00
12:35 am 00:35 Clear 66 18.8 36 2.1 33 33 SSW 20 31 29.89 1012 10 16 0.00 0.00
12:55 am 00:55 Clear 65 18.1 36 2.2 35 35 SSW 20 31 29.89 1012 10 16 0.00 0.00
1:15 am 01:15 Clear 64 17.9 36 2.1 35 35 SSW 17 28 29.89 1012 10 16 0.00 0.00
1:35 am 01:35 Clear 64 17.5 36 2.1 36 36 SSW 16 26 29.88 1012 10 16 0.00 0.00
1:55 am 01:55 Clear 63 17.2 35 1.9 36 36 SSW 14 22 29.89 1012 10 16 0.00 0.00
2:15 am 02:15 Clear 63 17.2 35 1.7 35 35 SSW 14 22 29.88 1012 10 16 0.00 0.00
2:35 am 02:35 Clear 63 17 35 1.7 36 36 SSW 17 28 29.88 1012 10 16 0.00 0.00
2:55 am 02:55 Clear 62 16.5 35 1.8 37 37 SSW 13 20 29.87 1012 10 16 0.00 0.00
3:15 am 03:15 Clear 61 16.1 35 1.7 38 38 SW 13 20 29.87 1011 10 16 0.00 0.00
3:35 am 03:35 Clear 61 16.1 35 1.6 38 38 SSW 13 20 29.86 1011 10 16 0.00 0.00
3:55 am 03:55 Clear 61 16.1 35 1.5 37 37 SSW 15 24 29.85 1011 10 16 0.00 0.00
4:15 am 04:15 Clear 61 16.1 35 1.5 37 37 SSW 13 20 29.85 1011 10 16 0.00 0.00
4:35 am 04:35 Clear 61 16 35 1.5 38 38 SSW 15 24 29.83 1010 10 16 0.00 0.00
4:55 am 04:55 Clear 60 15.7 35 1.6 39 39 SSW 14 22 29.83 1010 10 16 0.00 0.00
5:15 am 05:15 Clear 60 15.5 35 1.6 39 39 SW 14 22 29.82 1010 10 16 0.00 0.00
5:35 am 05:35 Clear 59 15.2 35 1.6 40 40 SSW 14 22 29.80 1009 10 16 0.00 0.00
5:55 am 05:55 Clear 59 15 35 1.7 41 41 SW 14 22 29.81 1009 10 16 0.00 0.00
6:15 am 06:15 Clear 58 14.5 35 1.8 42 42 SW 9 15 29.81 1009 10 16 0.00 0.00
6:35 am 06:35 Clear 57 14 36 2 44 44 SW 8 13 29.81 1010 10 16 0.00 0.00
6:55 am 06:55 Sunny 56 13.6 36 2 46 46 SSW 8 13 29.81 1009 10 16 0.00 0.00
7:15 am 07:15 Sunny 57 14.1 36 2.2 45 45 SSW 5 7 29.81 1010 10 16 0.00 0.00
7:35 am 07:35 Sunny 58 14.5 37 2.5 45 45 SSW 5 7 29.81 1009 10 16 0.00 0.00
7:55 am 07:55 Sunny 59 15 38 3.3 46 46 Calm 29.81 1009 10 16 0.00 0.00
8:15 am 08:15 Sunny 61 16 36 2.2 40 40 Calm 29.79 1009 10 16 0.00 0.00
8:35 am 08:35 Sunny 62 16.6 36 2.1 38 38 SW 5 7 29.78 1009 10 16 0.00 0.00
8:55 am 08:55 Sunny 64 17.5 36 2.4 37 37 SW 7 11 29.76 1008 10 16 0.00 0.00
9:15 am 09:15 Sunny 66 18.8 37 2.5 34 34 WSW 5 7 29.74 1007 10 16 0.00 0.00
9:35 am 09:35 Sunny 69 20.3 37 2.8 32 32 SW 10 17 29.72 1006 10 16 0.00 0.00
9:55 am 09:55 Sunny 71 21.4 38 3.1 30 30 SW 12 19 29.70 1006 10 16 0.00 0.00
10:15 am 10:15 Sunny 72 22.4 38 3.6 29 29 SSW 10 17 29.68 1005 10 16 0.00 0.00
10:35 am 10:35 Sunny 73 23 39 3.8 29 29 SSW 12 19 29.67 1005 10 16 0.00 0.00
10:55 am 10:55 Sunny 74 23.6 39 3.7 27 27 SSW 12 19 29.66 1004 10 16 0.00 0.00
11:15 am 11:15 Sunny 78 25.7 40 4.2 25 25 SSW 14 22 29.64 1004 10 16 0.00 0.00
11:35 am 11:35 Sunny 79 26.3 40 4.2 24 24 SSW 18 30 29.63 1003 10 16 0.00 0.00
11:55 am 11:55 Sunny 81 27.3 38 3.6 22 22 S 16 26 29.62 1003 10 16 0.00 0.00
12:15 pm 12:15 Sunny 83 28.4 38 3.6 20 20 S 21 33 29.60 1002 10 16 0.00 0.00
12:35 pm 12:35 Partly Cloudy 84 29 39 3.8 20 20 S 18 30 29.59 1002 10 16 0.00 0.00
12:55 pm 12:55 Sunny 85 29.7 40 4.2 20 20 S 22 35 29.57 1001 10 16 0.00 0.00
1:15 pm 13:15 Sunny 87 30.4 39 3.8 18 18 SSW 23 37 29.56 1001 10 16 0.00 0.00
1:35 pm 13:35 Sunny 87 30.7 38 3.3 17 17 SSW 20 31 29.55 1001 10 16 0.00 0.00
1:55 pm 13:55 Sunny 88 30.9 37 2.7 16 16 SSW 23 37 29.53 1000 10 16 0.00 0.00
2:15 pm 14:15 Sunny 88 31.3 36 2.3 16 16 SSW 26 43 29.51 999 10 16 0.00 0.00
2:35 pm 14:35 Sunny 89 31.5 35 1.4 14 14 SW 23 37 29.51 999 10 16 0.00 0.00
2:55 pm 14:55 Sunny 90 32.2 35 1.4 14 14 SSW 24 39 29.49 999 10 16 0.00 0.00
3:15 pm 15:15 Sunny 90 32.3 34 1.1 14 14 SSW 25 41 29.47 998 10 16 0.00 0.00
3:35 pm 15:35 Sunny 90 32.2 34 1.2 14 14 S 24 39 29.47 998 10 16 0.00 0.00
3:55 pm 15:55 Sunny 91 32.7 34 1.2 13 13 SSW 23 37 29.45 997 7 11 0.00 0.00
4:15 pm 16:15 Sunny 91 33 34 1 13 13 SSW 20 31 29.44 997 10 16 0.00 0.00
4:35 pm 16:35 Sunny 91 33 33 0.7 13 13 SSW 22 35 29.43 997 10 16 0.00 0.00
4:55 pm 16:55 Sunny 91 32.9 33 0.7 13 13 SSW 20 31 29.43 997 10 16 0.00 0.00
5:15 pm 17:15 Sunny 90 32.3 33 0.3 13 13 SSW 17 28 29.42 996 10 16 0.00 0.00
5:35 pm 17:35 Sunny 92 33.1 33 0.5 12 12 S 22 35 29.41 996 10 16 0.00 0.00
5:55 pm 17:55 Sunny 92 33.3 32 -0.1 12 12 SSW 17 28 29.40 995 10 16 0.00 0.00
6:15 pm 18:15 Sunny 91 32.8 32 0.2 12 12 SSW 20 31 29.40 996 10 16 0.00 0.00
6:35 pm 18:35 Sunny 91 32.6 32 0.1 12 12 S 18 30 29.39 995 10 16 0.00 0.00
6:55 pm 18:55 Sunny 87 30.8 36 2.4 16 16 S 17 28 29.41 996 10 16 0.00 0.00
7:15 pm 19:15 Sunny 85 29.4 37 2.9 18 18 S 18 30 29.41 996 10 16 0.00 0.00
7:35 pm 19:35 Sunny 83 28.5 38 3.2 20 20 S 16 26 29.41 996 10 16 0.00 0.00
7:55 pm 19:55 Sunny 81 27.2 39 4 23 23 S 17 28 29.42 996 10 16 0.00 0.00
8:15 pm 20:15 Sunny 80 26.6 39 4.1 24 24 S 16 26 29.42 996 10 16 0.00 0.00
8:35 pm 20:35 Sunny 78 25.8 39 3.8 24 24 S 15 24 29.43 996 10 16 0.00 0.00
8:55 pm 20:55 Clear 77 24.8 39 3.9 26 26 S 16 26 29.43 997 10 16 0.00 0.00
9:15 pm 21:15 Clear 77 24.9 38 3.5 25 25 S 16 26 29.44 997 10 16 0.00 0.00
9:35 pm 21:35 Clear 77 24.8 38 3.5 25 25 S 17 28 29.44 997 10 16 0.00 0.00
9:55 pm 21:55 Clear 75 23.8 39 4.1 28 28 S 17 28 29.45 997 10 16 0.00 0.00
10:15 pm 22:15 Clear 74 23.2 42 5.7 32 32 S 18 30 29.46 998 10 16 0.00 0.00
10:35 pm 22:35 Clear 73 22.8 44 6.4 35 35 S 16 26 29.47 998 10 16 0.00 0.00
10:55 pm 22:55 Clear 72 22.4 44 6.8 37 37 S 17 28 29.47 998 10 16 0.00 0.00
11:15 pm 23:15 Clear 72 22.1 45 7 38 38 S 18 30 29.47 998 10 16 0.00 0.00
11:35 pm 23:35 Clear 71 21.9 45 7.1 39 39 S 17 28 29.47 998 10 16 0.00 0.00
11:55 pm 23:55 Clear 71 21.5 45 7.1 39 39 S 15 24 29.47 998 10 16 0.00 0.00

Powered by AerisWeather